Voltar ao catálogo

FENGYUN 1C DEB

AtivoSSO
NORAD 29936·DEBRIS·🇨🇳 China

Lançado May 10, 1999 de Taiyuan Satellite Launch Center

Loading…

Próximas Passagens (próximas 24 horas)

TLE

AtualizadoSource: Space-Track

Época: Sep 14, 2026, 05:58 UTC

1 29936U 99025JJ  26257.24901457  .00000227  00000-0  88156-4 0  9991
2 29936  98.6825  16.9253 0114732  92.4234 269.0092 14.35545455 28848

Acompanhe FENGYUN 1C DEB em tempo real com AllMySat

Download on the App Store